This demonstration page uses our WeatherBlox Daily Observations layout. Learn more.

41.55636, -103.73856

Hourly Observations for August 19, 2018

Temp ( °F °C ) Dew Point ( °F °C ) Humidity (%) Winds ( mph kmh ) Pressure ( in mb ) Visibility ( mi km ) Precip ( " mm )
12:58 am 00:58 Mostly Cloudy 56 13.2 51 10.7 85 85 NW 9 15 30.03 1017 10 16.09344 0 0
1:58 am 01:58 Mostly Clear 54 12.4 49 9.7 84 84 NW 10 17 30.03 1017 10 16.09344 0 0
2:58 am 02:58 Clear 54 12 48 9 82 82 NW 13 20 30 1016 10 16.09344 0 0
3:58 am 03:58 Clear 55 12.7 49 9.3 80 80 NNW 13 20 30 1016 10 16.09344 0 0
4:58 am 04:58 Clear 54 12.2 49 9.7 85 85 NNW 15 24 30.03 1017 10 16.09344 0 0
5:58 am 05:58 Mostly Cloudy 55 12.5 50 10.1 85 85 NNW 17 28 30.03 1017 10 16.09344 0 0
6:58 am 06:58 Mostly Sunny 55 12.8 51 10.5 86 86 NNW 18 30 30.03 1017 10 16.09344 0 0
7:58 am 07:58 Mostly Cloudy 58 14.2 53 11.4 83 83 NNW 21 33 30.06 1018 10 16.09344 0 0
8:58 am 08:58 Mostly Cloudy 59 14.8 52 11.1 79 79 NW 23 37 30.06 1018 9 14.484096 0 0
9:58 am 09:58 Windy with Rain Showers Likely 57 14 52 11.3 84 84 NNW 25 41 30.06 1018 4 6.437376 0 0
10:58 am 10:58 Cloudy 57 13.7 53 11.9 89 89 NNW 23 37 30.06 1018 10 16.09344 0.02 0.508
11:58 am 11:58 Cloudy with Light Showers 57 13.7 54 12.2 91 91 NNW 18 30 30.09 1019 10 16.09344 0.01 0.254
12:58 pm 12:58 Windy with Rain Showers Likely 59 15.1 55 12.5 85 85 N 25 41 30.09 1019 8 12.874752 0 0
1:58 pm 13:58 Cloudy with Light Showers 58 14.4 55 12.9 91 91 N 16 26 30.12 1020 7 11.265408 0 0
2:58 pm 14:58 Mostly Cloudy with Light Showers 58 14.5 56 13.1 91 91 N 18 30 30.09 1019 10 16.09344 0.13 3.302
3:58 pm 15:58 Mostly Cloudy 62 16.7 54 12.4 76 76 NNW 31 50 30.09 1019 10 16.09344 0.05 1.27
4:58 pm 16:58 Mostly Cloudy 62 16.7 54 12.4 76 76 NNW 24 39 30.09 1019 10 16.09344 0 0
5:58 pm 17:58 Windy with Rain Showers Likely 60 15.5 53 11.6 78 78 NNW 23 37 30.12 1020 10 16.09344 0 0
6:58 pm 18:58 Mostly Cloudy with Mist and Fog 61 15.9 53 11.8 77 77 N 10 17 30.12 1020 6 9.656064 0 0
7:58 pm 19:58 Mostly Clear with Mist and Fog 57 13.8 48 8.8 72 72 N 12 19 30.15 1021 3 4.828032 0 0
8:58 pm 20:58 Clear with Mist and Fog 53 11.6 50 9.8 89 89 N 9 15 30.18 1022 5 8.04672 0 0
9:58 pm 21:58 Clear with Mist and Fog 51 10.8 49 9.2 90 90 N 10 17 30.21 1023 5 8.04672 0 0
10:58 pm 22:58 Clear with Mist and Fog 51 10.3 47 8.4 88 88 N 10 17 30.21 1023 5 8.04672 0 0
11:58 pm 23:58 Mostly Clear with Mist and Fog 48 9 45 7.1 88 88 NNE 12 19 30.24 1024 5 8.04672 0 0

Powered by AerisWeather